Weather Roundup
Issued by NWS Corpus Christi, TX

Home | Current Version | Previous Version | Text Only | Print | Product List | Glossary On
Versions: 1 2 3 4 5 6 7 8 9 10 11 12 13 14 15 16 17 18 19 20 21 22 23 24 25 26 27 28 29 30 31 32 33 34 35 36 37 38 39 40 41 42 43 44 45 46 47 48 49 50
000
ASUS44 KCRP 261410
HRRCRP

SOUTH TEXAS REGIONAL WEATHER ROUNDUP
NATIONAL WEATHER SERVICE CORPUS CHRISTI TX
900 AM CDT THU MAY 26 2016


TXZ229>244-261500-
...CORPUS CHRISTI AREA OBSERVATIONS...

CITY           SKY/WX    TMP DP  RH WIND       PRES   REMARKS
CORPUS CHRISTI CLOUDY    83  78  85 S9        29.94S HX  93
NAS CORPUS CHR CLOUDY    83  80  91 S16G23    29.94S HX  95
ROCKPORT       CLOUDY    83  77  82 S13G18    29.95R HX  92
KINGSVILLE NAS CLOUDY    82  81  96 SE7       29.94S HX  95
ALICE          CLOUDY    81  75  82 S7        29.93F
FALFURRIAS     CLOUDY    79  74  83 E3        29.93F
$$

...VICTORIA AREA OBSERVATIONS...

CITY           SKY/WX    TMP DP  RH WIND       PRES   REMARKS
VICTORIA       CLOUDY    83  77  82 S13       29.96S HX  92
BEEVILLE       FAIR      74  74  98 S9        29.94F FOG
PLEASANTON     CLOUDY    80  75  86 SE9       29.93S
SAN ANTONIO    CLOUDY    80  75  84 S12       29.95S
$$

...LAREDO AREA OBSERVATIONS...

CITY           SKY/WX    TMP DP  RH WIND       PRES   REMARKS
LAREDO         CLOUDY    81  76  84 SE14      29.89F
COTULLA        CLOUDY    81  73  76 SE12      29.91F
DEL RIO        CLOUDY    76  67  73 SE12      29.89R
MCALLEN        CLOUDY    83  79  88 SE10      29.94S FOG     HX  94
HEBBRONVILLE   CLOUDY    78  74  87 S8        29.94F HAZE
$$

...OTHER TEXAS OBSERVATIONS...

CITY           SKY/WX    TMP DP  RH WIND       PRES   REMARKS
BROWNSVILLE    CLOUDY    83  79  88 S13       29.95F HX  94
HOUSTON        LGT RAIN  79  76  90 S7        30.00R
COL. STATION   CLOUDY    79  76  90 S8        29.98R
AUSTIN         LGT RAIN  79  77  94 S8        29.94R FOG
WACO           TSTM      69  67  93 W12       30.00R FOG
FORT WORTH     LGT RAIN  78  73  84 S14       29.90S
WICHITA FALLS  CLOUDY    77  74  90 S7        29.87R
LUBBOCK        MOSUNNY   74  62  66 SW20      29.88S
EL PASO        MOSUNNY   71  31  22 W24G31    29.98R
$$

...MARINE OBSERVATIONS...

STATION/POSITION TIME  SKY/WX   TEMP    WIND        PRES    VSBY  WAVE   SWELL
                                AIR SEA DIR/SP/G                  HT/PER HT/PER
                 (UTC)          (F)     (DEG/KT/KT) (MB)    (MI)  (FT/S) (FT/S)
PORT ARANSAS     1400            81 83  150/ 17/ 18 1014.7R
BUOY 90 E PORT A 1350            81 81  160/ 17/ 21 1015.2R         6/ 7
BUOY 45 SE BAFFI 1350            81 81  170/ 12/ 14 1014.2S         6/ 7   5/ 7
BUOY 200 E PT IS 1350                                 N/A           4/ 7   2/ 7
BUOY 15 E GALVES 1350            80 80  150/ 16/ 19 1015.1S         4/ 7   2/16
$$




USA.gov is the U.S. government's official web portal to all federal, state and local government web resources and services.